Year,Month,Day,Hour,Minute,Value (Times are PST for temperature in C)
2012,05,19,00,00,8.20
2012,05,19,00,01,8.20
2012,05,19,00,02,8.20
2012,05,19,00,03,8.20
2012,05,19,00,04,8.20
2012,05,19,00,05,8.20
2012,05,19,00,06,8.20
2012,05,19,00,07,8.10
2012,05,19,00,08,8.10
2012,05,19,00,09,8.10
2012,05,19,00,10,8.10
2012,05,19,00,11,8.00
2012,05,19,00,12,8.00
2012,05,19,00,13,7.90
2012,05,19,00,14,7.90
2012,05,19,00,15,7.90
2012,05,19,00,16,7.80
2012,05,19,00,17,7.80
2012,05,19,00,18,7.80
2012,05,19,00,19,7.80
2012,05,19,00,20,7.80
2012,05,19,00,21,7.80
2012,05,19,00,22,7.80
2012,05,19,00,23,7.70
2012,05,19,00,24,7.70
2012,05,19,00,25,7.70
2012,05,19,00,26,7.60
2012,05,19,00,27,7.60
2012,05,19,00,28,7.60
2012,05,19,00,29,7.50
2012,05,19,00,30,7.50
2012,05,19,00,31,7.50
2012,05,19,00,32,7.40
2012,05,19,00,33,7.40
2012,05,19,00,34,7.40
2012,05,19,00,35,7.40
2012,05,19,00,36,7.30
2012,05,19,00,37,7.30
2012,05,19,00,38,7.30
2012,05,19,00,39,7.30
2012,05,19,00,40,7.30
2012,05,19,00,41,7.30
2012,05,19,00,42,7.30
2012,05,19,00,43,7.30
2012,05,19,00,44,7.30
2012,05,19,00,45,7.30
2012,05,19,00,46,7.30
2012,05,19,00,47,7.30
2012,05,19,00,48,7.30
2012,05,19,00,49,7.30
2012,05,19,00,50,7.20
2012,05,19,00,51,7.20
2012,05,19,00,52,7.20
2012,05,19,00,53,7.20
2012,05,19,00,54,7.20
2012,05,19,00,55,7.20
2012,05,19,00,56,7.20
2012,05,19,00,57,7.20
2012,05,19,00,58,7.10
2012,05,19,00,59,7.10
2012,05,19,01,00,7.10
2012,05,19,01,01,7.10
2012,05,19,01,02,7.10
2012,05,19,01,03,7.10
2012,05,19,01,04,7.00
2012,05,19,01,05,7.00
2012,05,19,01,06,7.00
2012,05,19,01,07,7.00
2012,05,19,01,08,7.00
2012,05,19,01,09,6.90
2012,05,19,01,10,6.90
2012,05,19,01,11,6.90
2012,05,19,01,12,6.90
2012,05,19,01,13,7.00
2012,05,19,01,14,7.00
2012,05,19,01,15,7.00
2012,05,19,01,16,7.00
2012,05,19,01,17,7.00
2012,05,19,01,18,7.00
2012,05,19,01,19,7.00
2012,05,19,01,20,7.00
2012,05,19,01,21,7.00
2012,05,19,01,22,7.00
2012,05,19,01,23,7.00
2012,05,19,01,24,7.00
2012,05,19,01,25,7.00
2012,05,19,01,26,6.90
2012,05,19,01,27,6.90
2012,05,19,01,28,6.90
2012,05,19,01,29,6.80
2012,05,19,01,30,6.80
2012,05,19,01,31,6.80
2012,05,19,01,32,6.80
2012,05,19,01,33,6.80
2012,05,19,01,34,6.80
2012,05,19,01,35,6.80
2012,05,19,01,36,6.80
2012,05,19,01,37,6.80
2012,05,19,01,38,6.80
2012,05,19,01,39,6.80
2012,05,19,01,40,6.80
2012,05,19,01,41,6.80
2012,05,19,01,42,6.80
2012,05,19,01,43,6.80
2012,05,19,01,44,6.80
2012,05,19,01,45,6.80
2012,05,19,01,46,6.80
2012,05,19,01,47,6.80
2012,05,19,01,48,6.80
2012,05,19,01,49,6.80
2012,05,19,01,50,6.80
2012,05,19,01,51,6.80
2012,05,19,01,52,6.70
2012,05,19,01,53,6.70
2012,05,19,01,54,6.70
2012,05,19,01,55,6.70
2012,05,19,01,56,6.70
2012,05,19,01,57,6.60
2012,05,19,01,58,6.60
2012,05,19,01,59,6.60
2012,05,19,02,00,6.60
2012,05,19,02,01,6.60
2012,05,19,02,02,6.60
2012,05,19,02,03,6.60
2012,05,19,02,04,6.50
2012,05,19,02,05,6.40
2012,05,19,02,06,6.40
2012,05,19,02,07,6.40
2012,05,19,02,08,6.40
2012,05,19,02,09,6.40
2012,05,19,02,10,6.40
2012,05,19,02,11,6.40
2012,05,19,02,12,6.30
2012,05,19,02,13,6.30
2012,05,19,02,14,6.30
2012,05,19,02,15,6.20
2012,05,19,02,16,6.20
2012,05,19,02,17,6.20
2012,05,19,02,18,6.20
2012,05,19,02,19,6.20
2012,05,19,02,20,6.20
2012,05,19,02,21,6.20
2012,05,19,02,22,6.20
2012,05,19,02,23,6.20
2012,05,19,02,24,6.20
2012,05,19,02,25,6.20
2012,05,19,02,26,6.20
2012,05,19,02,27,6.20
2012,05,19,02,28,6.20
2012,05,19,02,29,6.20
2012,05,19,02,30,6.10
2012,05,19,02,31,6.10
2012,05,19,02,32,6.10
2012,05,19,02,33,6.10
2012,05,19,02,34,6.10
2012,05,19,02,35,6.10
2012,05,19,02,36,6.10
2012,05,19,02,37,6.10
2012,05,19,02,38,6.00
2012,05,19,02,39,6.00
2012,05,19,02,40,6.00
2012,05,19,02,41,6.00
2012,05,19,02,42,5.90
2012,05,19,02,43,5.90
2012,05,19,02,44,5.90
2012,05,19,02,45,5.80
2012,05,19,02,46,5.80
2012,05,19,02,47,5.70
2012,05,19,02,48,5.70
2012,05,19,02,49,5.70
2012,05,19,02,50,5.70
2012,05,19,02,51,5.70
2012,05,19,02,52,5.70
2012,05,19,02,53,5.70
2012,05,19,02,54,5.80
2012,05,19,02,55,5.80
2012,05,19,02,56,5.80
2012,05,19,02,57,5.80
2012,05,19,02,58,5.80
2012,05,19,02,59,5.70
2012,05,19,03,00,5.70
2012,05,19,03,01,5.70
2012,05,19,03,02,5.70
2012,05,19,03,03,5.70
2012,05,19,03,04,5.60
2012,05,19,03,05,5.60
2012,05,19,03,06,5.60
2012,05,19,03,07,5.60
2012,05,19,03,08,5.60
2012,05,19,03,09,5.50
2012,05,19,03,10,5.50
2012,05,19,03,11,5.50
2012,05,19,03,12,5.50
2012,05,19,03,13,5.40
2012,05,19,03,14,5.40
2012,05,19,03,15,5.40
2012,05,19,03,16,5.40
2012,05,19,03,17,5.40
2012,05,19,03,18,5.40
2012,05,19,03,19,5.30
2012,05,19,03,20,5.30
2012,05,19,03,21,5.30
2012,05,19,03,22,5.30
2012,05,19,03,23,5.30
2012,05,19,03,24,5.30
2012,05,19,03,25,5.30
2012,05,19,03,26,5.30
2012,05,19,03,27,5.30
2012,05,19,03,28,5.30
2012,05,19,03,29,5.30
2012,05,19,03,30,5.30
2012,05,19,03,31,5.30
2012,05,19,03,32,5.30
2012,05,19,03,33,5.30
2012,05,19,03,34,5.30
2012,05,19,03,35,5.30
2012,05,19,03,36,5.30
2012,05,19,03,37,5.30
2012,05,19,03,38,5.30
2012,05,19,03,39,5.30
2012,05,19,03,40,5.20
2012,05,19,03,41,5.20
2012,05,19,03,42,5.10
2012,05,19,03,43,5.10
2012,05,19,03,44,5.10
2012,05,19,03,45,5.10
2012,05,19,03,46,5.00
2012,05,19,03,47,4.90
2012,05,19,03,48,4.90
2012,05,19,03,49,4.90
2012,05,19,03,50,4.80
2012,05,19,03,51,4.80
2012,05,19,03,52,4.80
2012,05,19,03,53,4.80
2012,05,19,03,54,4.80
2012,05,19,03,55,4.90
2012,05,19,03,56,4.90
2012,05,19,03,57,4.90
2012,05,19,03,58,4.90
2012,05,19,03,59,5.00
2012,05,19,04,00,5.10
2012,05,19,04,01,5.10
2012,05,19,04,02,5.10
2012,05,19,04,03,5.10
2012,05,19,04,04,5.10
2012,05,19,04,05,5.10
2012,05,19,04,06,5.10
2012,05,19,04,07,5.10
2012,05,19,04,08,5.10
2012,05,19,04,09,5.00
2012,05,19,04,10,4.90
2012,05,19,04,11,4.90
2012,05,19,04,12,4.90
2012,05,19,04,13,4.90
2012,05,19,04,14,4.80
2012,05,19,04,15,4.80
2012,05,19,04,16,4.80
2012,05,19,04,17,4.70
2012,05,19,04,18,4.70
2012,05,19,04,19,4.60
2012,05,19,04,20,4.60
2012,05,19,04,21,4.60
2012,05,19,04,22,4.60
2012,05,19,04,23,4.60
2012,05,19,04,24,4.60
2012,05,19,04,25,4.60
2012,05,19,04,26,4.60
2012,05,19,04,27,4.60
2012,05,19,04,28,4.60
2012,05,19,04,29,4.60
2012,05,19,04,30,4.60
2012,05,19,04,31,4.70
2012,05,19,04,32,4.70
2012,05,19,04,33,4.70
2012,05,19,04,34,4.70
2012,05,19,04,35,4.70
2012,05,19,04,36,4.70
2012,05,19,04,37,4.60
2012,05,19,04,38,4.60
2012,05,19,04,39,4.60
2012,05,19,04,40,4.60
2012,05,19,04,41,4.60
2012,05,19,04,42,4.60
2012,05,19,04,43,4.60
2012,05,19,04,44,4.60
2012,05,19,04,45,4.60
2012,05,19,04,46,4.60
2012,05,19,04,47,4.60
2012,05,19,04,48,4.60
2012,05,19,04,49,4.60
2012,05,19,04,50,4.60
2012,05,19,04,51,4.60
2012,05,19,04,52,4.60
2012,05,19,04,53,4.60
2012,05,19,04,54,4.60
2012,05,19,04,55,4.60
2012,05,19,04,56,4.60
2012,05,19,04,57,4.60
2012,05,19,04,58,4.60
2012,05,19,04,59,4.60
2012,05,19,05,00,4.60
2012,05,19,05,01,4.60
2012,05,19,05,02,4.60
2012,05,19,05,03,4.60
2012,05,19,05,04,4.60
2012,05,19,05,05,4.60
2012,05,19,05,06,4.60
2012,05,19,05,07,4.60
2012,05,19,05,08,4.60
2012,05,19,05,09,4.70
2012,05,19,05,10,4.70
2012,05,19,05,11,4.70
2012,05,19,05,12,4.70
2012,05,19,05,13,4.80
2012,05,19,05,14,4.80
2012,05,19,05,15,4.80
2012,05,19,05,16,4.80
2012,05,19,05,17,4.80
2012,05,19,05,18,4.90
2012,05,19,05,19,4.90
2012,05,19,05,20,4.90
2012,05,19,05,21,4.90
2012,05,19,05,22,4.90
2012,05,19,05,23,4.90
2012,05,19,05,24,4.90
2012,05,19,05,25,4.90
2012,05,19,05,26,4.90
2012,05,19,05,27,4.90
2012,05,19,05,28,4.90
2012,05,19,05,29,4.90
2012,05,19,05,30,4.90
2012,05,19,05,31,4.90
2012,05,19,05,32,5.00
2012,05,19,05,33,5.10
2012,05,19,05,34,5.10
2012,05,19,05,35,5.10
2012,05,19,05,36,5.30
2012,05,19,05,37,5.30
2012,05,19,05,38,5.30
2012,05,19,05,39,5.40
2012,05,19,05,40,5.40
2012,05,19,05,41,5.40
2012,05,19,05,42,5.40
2012,05,19,05,43,5.40
2012,05,19,05,44,5.40
2012,05,19,05,45,5.40
2012,05,19,05,46,5.30
2012,05,19,05,47,5.30
2012,05,19,05,48,5.40
2012,05,19,05,49,5.40
2012,05,19,05,50,5.40
2012,05,19,05,51,5.50
2012,05,19,05,52,5.50
2012,05,19,05,53,5.50
2012,05,19,05,54,5.60
2012,05,19,05,55,5.70
2012,05,19,05,56,5.70
2012,05,19,05,57,5.70
2012,05,19,05,58,5.70
2012,05,19,05,59,5.70
2012,05,19,06,00,5.70
2012,05,19,06,01,5.70
2012,05,19,06,02,5.60
2012,05,19,06,03,5.60
2012,05,19,06,04,5.60
2012,05,19,06,05,5.60
2012,05,19,06,06,5.70
2012,05,19,06,07,5.70
2012,05,19,06,08,5.70
2012,05,19,06,09,5.70
2012,05,19,06,10,5.70
2012,05,19,06,11,5.80
2012,05,19,06,12,5.80
2012,05,19,06,13,5.80
2012,05,19,06,14,5.80
2012,05,19,06,15,5.80
2012,05,19,06,16,5.90
2012,05,19,06,17,5.90
2012,05,19,06,18,6.00
2012,05,19,06,19,6.00
2012,05,19,06,20,6.10
2012,05,19,06,21,6.20
2012,05,19,06,22,6.20
2012,05,19,06,23,6.30
2012,05,19,06,24,6.40
2012,05,19,06,25,6.40
2012,05,19,06,26,6.50
2012,05,19,06,27,6.60
2012,05,19,06,28,6.70
2012,05,19,06,29,6.80
2012,05,19,06,30,6.80
2012,05,19,06,31,6.80
2012,05,19,06,32,6.90
2012,05,19,06,33,6.90
2012,05,19,06,34,7.00
2012,05,19,06,35,7.00
2012,05,19,06,36,7.10
2012,05,19,06,37,7.10
2012,05,19,06,38,7.10
2012,05,19,06,39,7.20
2012,05,19,06,40,7.20
2012,05,19,06,41,7.20
2012,05,19,06,42,7.30
2012,05,19,06,43,7.30
2012,05,19,06,44,7.30
2012,05,19,06,45,7.30
2012,05,19,06,46,7.30
2012,05,19,06,47,7.30
2012,05,19,06,48,7.30
2012,05,19,06,49,7.30
2012,05,19,06,50,7.30
2012,05,19,06,51,7.40
2012,05,19,06,52,7.30
2012,05,19,06,53,7.30
2012,05,19,06,54,7.40
2012,05,19,06,55,7.40
2012,05,19,06,56,7.40
2012,05,19,06,57,7.50
2012,05,19,06,58,7.60
2012,05,19,06,59,7.60
2012,05,19,07,00,7.70
2012,05,19,07,01,7.70
2012,05,19,07,02,7.80
2012,05,19,07,03,7.80
2012,05,19,07,04,7.70
2012,05,19,07,05,7.70
2012,05,19,07,06,7.70
2012,05,19,07,07,7.70
2012,05,19,07,08,7.60
2012,05,19,07,09,7.60
2012,05,19,07,10,7.60
2012,05,19,07,11,7.60
2012,05,19,07,12,7.50
2012,05,19,07,13,7.60
2012,05,19,07,14,7.70
2012,05,19,07,15,7.70
2012,05,19,07,16,7.80
2012,05,19,07,17,7.80
2012,05,19,07,18,7.90
2012,05,19,07,19,7.90
2012,05,19,07,20,7.90
2012,05,19,07,21,7.90
2012,05,19,07,22,7.90
2012,05,19,07,23,7.90
2012,05,19,07,24,7.90
2012,05,19,07,25,7.90
2012,05,19,07,26,7.90
2012,05,19,07,27,8.00
2012,05,19,07,28,8.00
2012,05,19,07,29,8.00
2012,05,19,07,30,8.10
2012,05,19,07,31,8.10
2012,05,19,07,32,8.10
2012,05,19,07,33,8.20
2012,05,19,07,34,8.20
2012,05,19,07,35,8.20
2012,05,19,07,36,8.20
2012,05,19,07,37,8.30
2012,05,19,07,38,8.40
2012,05,19,07,39,8.40
2012,05,19,07,40,8.50
2012,05,19,07,41,8.50
2012,05,19,07,42,8.60
2012,05,19,07,43,8.70
2012,05,19,07,44,8.80
2012,05,19,07,45,8.90
2012,05,19,07,46,9.00
2012,05,19,07,47,9.10
2012,05,19,07,48,9.30
2012,05,19,07,49,9.40
2012,05,19,07,50,9.50
2012,05,19,07,51,9.50
2012,05,19,07,52,9.60
2012,05,19,07,53,9.70
2012,05,19,07,54,9.80
2012,05,19,07,55,9.90
2012,05,19,07,56,10.00
2012,05,19,07,57,10.20
2012,05,19,07,58,10.30
2012,05,19,07,59,10.40
2012,05,19,08,00,10.50
2012,05,19,08,01,10.60
2012,05,19,08,02,10.70
2012,05,19,08,03,10.80
2012,05,19,08,04,10.90
2012,05,19,08,05,10.90
2012,05,19,08,06,11.00
2012,05,19,08,07,11.10
2012,05,19,08,08,11.20
2012,05,19,08,09,11.30
2012,05,19,08,10,11.30
2012,05,19,08,11,11.30
2012,05,19,08,12,11.40
2012,05,19,08,13,11.40
2012,05,19,08,14,11.50
2012,05,19,08,15,11.60
2012,05,19,08,16,11.70
2012,05,19,08,17,11.70
2012,05,19,08,18,11.80
2012,05,19,08,19,11.80
2012,05,19,08,20,11.90
2012,05,19,08,21,11.90
2012,05,19,08,22,12.00
2012,05,19,08,23,12.10
2012,05,19,08,24,12.10
2012,05,19,08,25,12.10
2012,05,19,08,26,12.10
2012,05,19,08,27,12.10
2012,05,19,08,28,12.10
2012,05,19,08,29,12.10
2012,05,19,08,30,12.10
2012,05,19,08,31,12.10
2012,05,19,08,32,12.20
2012,05,19,08,33,12.20
2012,05,19,08,34,12.20
2012,05,19,08,35,12.20
2012,05,19,08,36,12.30
2012,05,19,08,37,12.30
2012,05,19,08,38,12.30
2012,05,19,08,39,12.40
2012,05,19,08,40,12.40
2012,05,19,08,41,12.50
2012,05,19,08,42,12.50
2012,05,19,08,43,12.50
2012,05,19,08,44,12.50
2012,05,19,08,45,12.50
2012,05,19,08,46,12.60
2012,05,19,08,47,12.60
2012,05,19,08,48,12.70
2012,05,19,08,49,12.70
2012,05,19,08,50,12.60
2012,05,19,08,51,12.60
2012,05,19,08,52,12.60
2012,05,19,08,53,12.50
2012,05,19,08,54,12.50
2012,05,19,08,55,12.40
2012,05,19,08,56,12.40
2012,05,19,08,57,12.50
2012,05,19,08,58,12.50
2012,05,19,08,59,12.50
2012,05,19,09,00,12.40
2012,05,19,09,01,12.40
2012,05,19,09,02,12.50
2012,05,19,09,03,12.50
2012,05,19,09,04,12.50
2012,05,19,09,05,12.60
2012,05,19,09,06,12.60
2012,05,19,09,07,12.70
2012,05,19,09,08,12.70
2012,05,19,09,09,12.60
2012,05,19,09,10,12.60
2012,05,19,09,11,12.70
2012,05,19,09,12,12.60
2012,05,19,09,13,12.60
2012,05,19,09,14,12.50
2012,05,19,09,15,12.50
2012,05,19,09,16,12.40
2012,05,19,09,17,12.40
2012,05,19,09,18,12.40
2012,05,19,09,19,12.40
2012,05,19,09,20,12.50
2012,05,19,09,21,12.50
2012,05,19,09,22,12.50
2012,05,19,09,23,12.60
2012,05,19,09,24,12.70
2012,05,19,09,25,12.70
2012,05,19,09,26,12.80
2012,05,19,09,27,12.90
2012,05,19,09,28,12.90
2012,05,19,09,29,13.00
2012,05,19,09,30,13.10
2012,05,19,09,31,13.10
2012,05,19,09,32,13.10
2012,05,19,09,33,13.10
2012,05,19,09,34,13.20
2012,05,19,09,35,13.20
2012,05,19,09,36,13.20
2012,05,19,09,37,13.30
2012,05,19,09,38,13.30
2012,05,19,09,39,13.30
2012,05,19,09,40,13.40
2012,05,19,09,41,13.40
2012,05,19,09,42,13.40
2012,05,19,09,43,13.50
2012,05,19,09,44,13.50
2012,05,19,09,45,13.50
2012,05,19,09,46,13.60
2012,05,19,09,47,13.70
2012,05,19,09,48,13.70
2012,05,19,09,49,13.70
2012,05,19,09,50,13.80
2012,05,19,09,51,13.80
2012,05,19,09,52,13.80
2012,05,19,09,53,13.80
2012,05,19,09,54,13.80
2012,05,19,09,55,13.90
2012,05,19,09,56,13.90
2012,05,19,09,57,13.90
2012,05,19,09,58,13.90
2012,05,19,09,59,14.00
2012,05,19,10,00,14.00
2012,05,19,10,01,14.00
2012,05,19,10,02,14.00
2012,05,19,10,03,14.10
2012,05,19,10,04,14.00
2012,05,19,10,05,14.00
2012,05,19,10,06,14.00
2012,05,19,10,07,13.90
2012,05,19,10,08,13.90
2012,05,19,10,09,14.00
2012,05,19,10,10,14.10
2012,05,19,10,11,14.20
2012,05,19,10,12,14.10
2012,05,19,10,13,14.10
2012,05,19,10,14,14.20
2012,05,19,10,15,14.20
2012,05,19,10,16,14.30
2012,05,19,10,17,14.30
2012,05,19,10,18,14.40
2012,05,19,10,19,14.50
2012,05,19,10,20,14.50
2012,05,19,10,21,14.60
2012,05,19,10,22,14.70
2012,05,19,10,23,14.60
2012,05,19,10,24,14.50
2012,05,19,10,25,14.60
2012,05,19,10,26,14.50
2012,05,19,10,27,14.50
2012,05,19,10,28,14.50
2012,05,19,10,29,14.60
2012,05,19,10,30,14.50
2012,05,19,10,31,14.50
2012,05,19,10,32,14.60
2012,05,19,10,33,14.50
2012,05,19,10,34,14.40
2012,05,19,10,35,14.40
2012,05,19,10,36,14.40
2012,05,19,10,37,14.30
2012,05,19,10,38,14.30
2012,05,19,10,39,14.30
2012,05,19,10,40,14.20
2012,05,19,10,41,14.30
2012,05,19,10,42,14.30
2012,05,19,10,43,14.20
2012,05,19,10,44,14.20
2012,05,19,10,45,14.20
2012,05,19,10,46,14.20
2012,05,19,10,47,14.30
2012,05,19,10,48,14.40
2012,05,19,10,49,14.30
2012,05,19,10,50,14.30
2012,05,19,10,51,14.40
2012,05,19,10,52,14.30
2012,05,19,10,53,14.20
2012,05,19,10,54,14.00
2012,05,19,10,55,13.90
2012,05,19,10,56,13.70
2012,05,19,10,57,13.70
2012,05,19,10,58,13.90
2012,05,19,10,59,13.90
2012,05,19,11,00,14.00
2012,05,19,11,01,14.10
2012,05,19,11,02,14.20
2012,05,19,11,03,14.30
2012,05,19,11,04,14.40
2012,05,19,11,05,14.50
2012,05,19,11,06,14.50
2012,05,19,11,07,14.40
2012,05,19,11,08,14.40
2012,05,19,11,09,14.40
2012,05,19,11,10,14.40
2012,05,19,11,11,14.50
2012,05,19,11,12,14.50
2012,05,19,11,13,14.40
2012,05,19,11,14,14.40
2012,05,19,11,15,14.40
2012,05,19,11,16,14.50
2012,05,19,11,17,14.60
2012,05,19,11,18,14.70
2012,05,19,11,19,14.70
2012,05,19,11,20,14.60
2012,05,19,11,21,14.50
2012,05,19,11,22,14.50
2012,05,19,11,23,14.60
2012,05,19,11,24,14.50
2012,05,19,11,25,14.40
2012,05,19,11,26,14.20
2012,05,19,11,27,14.10
2012,05,19,11,28,14.10
2012,05,19,11,29,14.20
2012,05,19,11,30,14.20
2012,05,19,11,31,14.20
2012,05,19,11,32,14.20
2012,05,19,11,33,14.20
2012,05,19,11,34,14.30
2012,05,19,11,35,14.30
2012,05,19,11,36,14.30
2012,05,19,11,37,14.20
2012,05,19,11,38,14.20
2012,05,19,11,39,14.10
2012,05,19,11,40,14.10
2012,05,19,11,41,14.10
2012,05,19,11,42,14.00
2012,05,19,11,43,13.90
2012,05,19,11,44,13.90
2012,05,19,11,45,14.00
2012,05,19,11,46,13.90
2012,05,19,11,47,14.00
2012,05,19,11,48,14.10
2012,05,19,11,49,14.30
2012,05,19,11,50,14.40
2012,05,19,11,51,14.40
2012,05,19,11,52,14.50
2012,05,19,11,53,14.50
2012,05,19,11,54,14.50
2012,05,19,11,55,14.50
2012,05,19,11,56,14.60
2012,05,19,11,57,14.80
2012,05,19,11,58,14.80
2012,05,19,11,59,14.80
2012,05,19,12,00,14.90
2012,05,19,12,01,15.00
2012,05,19,12,02,14.90
2012,05,19,12,03,14.90
2012,05,19,12,04,14.90
2012,05,19,12,05,14.90
2012,05,19,12,06,14.80
2012,05,19,12,07,14.80
2012,05,19,12,08,14.80
2012,05,19,12,09,14.80
2012,05,19,12,10,14.80
2012,05,19,12,11,14.70
2012,05,19,12,12,14.60
2012,05,19,12,13,14.50
2012,05,19,12,14,14.50
2012,05,19,12,15,14.40
2012,05,19,12,16,14.30
2012,05,19,12,17,14.30
2012,05,19,12,18,14.30
2012,05,19,12,19,14.20
2012,05,19,12,20,14.40
2012,05,19,12,21,14.50
2012,05,19,12,22,14.60
2012,05,19,12,23,14.70
2012,05,19,12,24,14.70
2012,05,19,12,25,14.80
2012,05,19,12,26,14.80
2012,05,19,12,27,14.90
2012,05,19,12,28,14.90
2012,05,19,12,29,14.90
2012,05,19,12,30,15.00
2012,05,19,12,31,15.20
2012,05,19,12,32,15.30
2012,05,19,12,33,15.20
2012,05,19,12,34,15.30
2012,05,19,12,35,15.30
2012,05,19,12,36,15.30
2012,05,19,12,37,15.50
2012,05,19,12,38,15.50
2012,05,19,12,39,15.50
2012,05,19,12,40,15.50
2012,05,19,12,41,15.20
2012,05,19,12,42,15.20
2012,05,19,12,43,15.10
2012,05,19,12,44,15.20
2012,05,19,12,45,15.20
2012,05,19,12,46,15.20
2012,05,19,12,47,15.20
2012,05,19,12,48,15.20
2012,05,19,12,49,15.20
2012,05,19,12,50,15.30
2012,05,19,12,51,15.30
2012,05,19,12,52,15.30
2012,05,19,12,53,15.40
2012,05,19,12,54,15.40
2012,05,19,12,55,15.30
2012,05,19,12,56,15.30
2012,05,19,12,57,15.20
2012,05,19,12,58,15.10
2012,05,19,12,59,15.10
2012,05,19,13,00,15.10
2012,05,19,13,01,15.20
2012,05,19,13,02,15.20
2012,05,19,13,03,15.20
2012,05,19,13,04,15.30
2012,05,19,13,05,15.30
2012,05,19,13,06,15.40
2012,05,19,13,07,15.50
2012,05,19,13,08,15.60
2012,05,19,13,09,15.70
2012,05,19,13,10,15.70
2012,05,19,13,11,15.70
2012,05,19,13,12,15.80
2012,05,19,13,13,15.80
2012,05,19,13,14,15.60
2012,05,19,13,15,15.60
2012,05,19,13,16,15.50
2012,05,19,13,17,15.50
2012,05,19,13,18,15.40
2012,05,19,13,19,15.40
2012,05,19,13,20,15.40
2012,05,19,13,21,15.50
2012,05,19,13,22,15.50
2012,05,19,13,23,15.50
2012,05,19,13,24,15.50
2012,05,19,13,25,15.40
2012,05,19,13,26,15.40
2012,05,19,13,27,15.50
2012,05,19,13,28,15.60
2012,05,19,13,29,15.70
2012,05,19,13,30,15.90
2012,05,19,13,31,16.00
2012,05,19,13,32,15.90
2012,05,19,13,33,15.90
2012,05,19,13,34,16.00
2012,05,19,13,35,16.10
2012,05,19,13,36,16.20
2012,05,19,13,37,16.30
2012,05,19,13,38,16.40
2012,05,19,13,39,16.40
2012,05,19,13,40,16.30
2012,05,19,13,41,16.20
2012,05,19,13,42,16.20
2012,05,19,13,43,16.00
2012,05,19,13,44,16.00
2012,05,19,13,45,16.10
2012,05,19,13,46,16.20
2012,05,19,13,47,16.20
2012,05,19,13,48,16.30
2012,05,19,13,49,16.40
2012,05,19,13,50,16.50
2012,05,19,13,51,16.60
2012,05,19,13,52,16.70
2012,05,19,13,53,16.60
2012,05,19,13,54,16.60
2012,05,19,13,55,16.60
2012,05,19,13,56,16.40
2012,05,19,13,57,16.30
2012,05,19,13,58,16.20
2012,05,19,13,59,16.10
2012,05,19,14,00,16.00
2012,05,19,14,01,15.80
2012,05,19,14,02,15.80
2012,05,19,14,03,15.80
2012,05,19,14,04,16.00
2012,05,19,14,05,16.10
2012,05,19,14,06,16.20
2012,05,19,14,07,16.40
2012,05,19,14,08,16.30
2012,05,19,14,09,16.20
2012,05,19,14,10,16.20
2012,05,19,14,11,16.20
2012,05,19,14,12,16.20
2012,05,19,14,13,16.30
2012,05,19,14,14,16.30
2012,05,19,14,15,16.30
2012,05,19,14,16,16.10
2012,05,19,14,17,16.00
2012,05,19,14,18,15.90
2012,05,19,14,19,15.90
2012,05,19,14,20,15.90
2012,05,19,14,21,15.90
2012,05,19,14,22,15.90
2012,05,19,14,23,16.00
2012,05,19,14,24,16.10
2012,05,19,14,25,16.00
2012,05,19,14,26,15.90
2012,05,19,14,27,16.00
2012,05,19,14,28,16.20
2012,05,19,14,29,16.30
2012,05,19,14,30,16.20
2012,05,19,14,31,16.20
2012,05,19,14,32,16.20
2012,05,19,14,33,16.30
2012,05,19,14,34,16.30
2012,05,19,14,35,16.30
2012,05,19,14,36,16.30
2012,05,19,14,37,16.30
2012,05,19,14,38,16.40
2012,05,19,14,39,16.40
2012,05,19,14,40,16.30
2012,05,19,14,41,16.30
2012,05,19,14,42,16.40
2012,05,19,14,43,16.40
2012,05,19,14,44,16.40
2012,05,19,14,45,16.40
2012,05,19,14,46,16.30
2012,05,19,14,47,16.10
2012,05,19,14,48,16.10
2012,05,19,14,49,16.10
2012,05,19,14,50,16.10
2012,05,19,14,51,16.20
2012,05,19,14,52,16.40
2012,05,19,14,53,16.40
2012,05,19,14,54,16.40
2012,05,19,14,55,16.50
2012,05,19,14,56,16.60
2012,05,19,14,57,16.80
2012,05,19,14,58,16.90
2012,05,19,14,59,17.00
2012,05,19,15,00,16.90
2012,05,19,15,01,16.80
2012,05,19,15,02,16.80
2012,05,19,15,03,16.90
2012,05,19,15,04,16.90
2012,05,19,15,05,16.90
2012,05,19,15,06,16.90
2012,05,19,15,07,16.90
2012,05,19,15,08,16.90
2012,05,19,15,09,16.90
2012,05,19,15,10,16.90
2012,05,19,15,11,17.00
2012,05,19,15,12,17.00
2012,05,19,15,13,17.00
2012,05,19,15,14,16.90
2012,05,19,15,15,16.90
2012,05,19,15,16,16.90
2012,05,19,15,17,17.00
2012,05,19,15,18,17.00
2012,05,19,15,19,16.90
2012,05,19,15,20,16.80
2012,05,19,15,21,16.70
2012,05,19,15,22,16.60
2012,05,19,15,23,16.50
2012,05,19,15,24,16.40
2012,05,19,15,25,16.30
2012,05,19,15,26,16.30
2012,05,19,15,27,16.30
2012,05,19,15,28,16.50
2012,05,19,15,29,16.50
2012,05,19,15,30,16.60
2012,05,19,15,31,16.50
2012,05,19,15,32,16.40
2012,05,19,15,33,16.50
2012,05,19,15,34,16.60
2012,05,19,15,35,16.70
2012,05,19,15,36,16.70
2012,05,19,15,37,16.70
2012,05,19,15,38,16.70
2012,05,19,15,39,16.70
2012,05,19,15,40,16.70
2012,05,19,15,41,16.70
2012,05,19,15,42,16.80
2012,05,19,15,43,16.80
2012,05,19,15,44,16.60
2012,05,19,15,45,16.60
2012,05,19,15,46,16.70
2012,05,19,15,47,16.80
2012,05,19,15,48,16.90
2012,05,19,15,49,17.00
2012,05,19,15,50,17.00
2012,05,19,15,51,17.00
2012,05,19,15,52,16.90
2012,05,19,15,53,16.90
2012,05,19,15,54,16.80
2012,05,19,15,55,16.80
2012,05,19,15,56,16.90
2012,05,19,15,57,16.90
2012,05,19,15,58,16.80
2012,05,19,15,59,16.80
2012,05,19,16,00,16.80
2012,05,19,16,01,16.90
2012,05,19,16,02,16.80
2012,05,19,16,03,16.70
2012,05,19,16,04,16.70
2012,05,19,16,05,16.70
2012,05,19,16,06,16.80
2012,05,19,16,07,16.90
2012,05,19,16,08,16.90
2012,05,19,16,09,16.90
2012,05,19,16,10,16.90
2012,05,19,16,11,17.00
2012,05,19,16,12,17.00
2012,05,19,16,13,17.00
2012,05,19,16,14,16.90
2012,05,19,16,15,16.90
2012,05,19,16,16,16.80
2012,05,19,16,17,16.80
2012,05,19,16,18,16.80
2012,05,19,16,19,16.80
2012,05,19,16,20,16.80
2012,05,19,16,21,16.70
2012,05,19,16,22,16.70
2012,05,19,16,23,16.70
2012,05,19,16,24,16.80
2012,05,19,16,25,16.90
2012,05,19,16,26,17.00
2012,05,19,16,27,17.00
2012,05,19,16,28,17.10
2012,05,19,16,29,17.20
2012,05,19,16,30,17.20
2012,05,19,16,31,17.30
2012,05,19,16,32,17.30
2012,05,19,16,33,17.20
2012,05,19,16,34,17.10
2012,05,19,16,35,17.10
2012,05,19,16,36,17.10
2012,05,19,16,37,17.10
2012,05,19,16,38,17.00
2012,05,19,16,39,16.90
2012,05,19,16,40,16.80
2012,05,19,16,41,16.70
2012,05,19,16,42,16.60
2012,05,19,16,43,16.60
2012,05,19,16,44,16.60
2012,05,19,16,45,16.50
2012,05,19,16,46,16.50
2012,05,19,16,47,16.40
2012,05,19,16,48,16.30
2012,05,19,16,49,16.30
2012,05,19,16,50,16.30
2012,05,19,16,51,16.20
2012,05,19,16,52,16.20
2012,05,19,16,53,16.20
2012,05,19,16,54,16.20
2012,05,19,16,55,16.20
2012,05,19,16,56,16.20
2012,05,19,16,57,16.20
2012,05,19,16,58,16.20
2012,05,19,16,59,16.20
2012,05,19,17,00,16.20
2012,05,19,17,01,16.20
2012,05,19,17,02,16.20
2012,05,19,17,03,16.20
2012,05,19,17,04,16.20
2012,05,19,17,05,16.30
2012,05,19,17,06,16.30
2012,05,19,17,07,16.30
2012,05,19,17,08,16.40
2012,05,19,17,09,16.30
2012,05,19,17,10,16.30
2012,05,19,17,11,16.30
2012,05,19,17,12,16.30
2012,05,19,17,13,16.40
2012,05,19,17,14,16.40
2012,05,19,17,15,16.50
2012,05,19,17,16,16.60
2012,05,19,17,17,16.70
2012,05,19,17,18,16.70
2012,05,19,17,19,16.70
2012,05,19,17,20,16.60
2012,05,19,17,21,16.60
2012,05,19,17,22,16.40
2012,05,19,17,23,16.40
2012,05,19,17,24,16.40
2012,05,19,17,25,16.40
2012,05,19,17,26,16.40
2012,05,19,17,27,16.30
2012,05,19,17,28,16.30
2012,05,19,17,29,16.40
2012,05,19,17,30,16.40
2012,05,19,17,31,16.40
2012,05,19,17,32,16.40
2012,05,19,17,33,16.40
2012,05,19,17,34,16.40
2012,05,19,17,35,16.40
2012,05,19,17,36,16.50
2012,05,19,17,37,16.60
2012,05,19,17,38,16.60
2012,05,19,17,39,16.70
2012,05,19,17,40,16.70